Wind_Speed
9 9 10 11 12 12 13 14 15 15 14 13 12 13 11 2 4 2 8 5 5 3 3 1 2 3 2 2 4 3 3 3 3 2 2 3 2 2 2 4 4 3 2 2 1 3 4 1 2 6 6 4 4 5
7 7 8 9 10 10 11 12 12 15 15 13 14 14 10 12 12 8 10 14 14 8 4 2 2 2 2 5 5 1 4 3 4 3 0 2 1 1 2 2 2 2 5 4 6 5 6 5 5 5 4 4 4 3
5 5 6 6 7 8 8 8 9 10 11 12 12 12 14 14 10 18 25 19 12 6 6 4 2 6 4 2 4 4 2 3 2 4 3 2 2 3 2 4 2 2 4 2 3 4 4 5 4 4 3 5 4 2
4 4 4 4 5 5 5 5 6 6 8 10 11 11 9 10 10 6 7 5 6 7 4 5 3 1 5 6 3 1 5 5 6 2 2 2 2 3 3 3 3 4 4 4 3 4 3 6 5 5 6 5 2 2
3 3 3 3 4 5 5 4 3 3 3 6 8 9 9 9 8 6 7 7 3 2 4 3 5 1 1 3 4 3 3 3 2 2 2 2 2 3 1 1 3 5 6 4 5 7 5 6 5 4 5 4 7 5
1 2 3 3 4 4 5 4 3 3 3 4 5 7 7 6 6 4 6 3 6 0 4 1 3 3 2 1 3 3 3 3 3 3 2 2 2 3 3 3 5 6 6 6 5 5 8 6 7 6 4 2 9 8
3 3 3 4 4 5 5 5 5 5 5 5 5 6 8 7 6 0 4 3 6 0 3 2 2 3 3 1 1 2 3 2 3 2 2 2 2 3 3 4 6 9 9 7 5 6 2 5 6 10 6 8 10 8
5 5 5 5 6 6 7 7 7 7 7 7 8 8 9 8 5 2 1 3 3 1 3 2 3 3 6 2 1 0 1 2 1 2 1 3 1 1 4 8 7 10 8 8 8 10 8 7 8 10 8 12 7 6
6 7 7 7 7 7 8 8 8 8 8 9 10 11 10 2 2 2 5 5 3 2 2 2 5 5 1 1 1 2 2 0 1 2 3 4 2 5 8 8 14 14 11 10 8 8 6 7 9 9 10 9 6 7
4 6 8 9 9 8 7 8 9 8 8 8 6 3 4 2 6 6 2 4 6 4 2 3 2 3 4 1 0 2 1 2 1 4 3 3 4 10 7 10 15 17 13 12 9 9 7 6 7 7 8 12 12 12
4 3 6 9 10 9 9 7 7 8 5 3 3 1 6 6 2 4 2 1 1 2 3 3 5 4 3 4 4 3 3 1 1 4 3 3 4 5 10 12 15 22 21 20 19 12 16 12 10 8 8 14 13 13
7 7 7 7 9 10 9 7 5 3 4 8 8 7 4 3 3 2 3 3 4 5 3 5 4 4 2 3 3 2 3 1 5 2 1 4 4 5 7 13 16 23 23 19 23 20 21 22 25 23 21 18 17 16
11 9 9 9 9 11 10 8 6 7 7 4 2 3 3 2 2 6 6 4 3 4 5 3 3 4 2 2 3 3 4 5 2 1 4 5 3 3 7 10 12 20 22 21 19 25 26 26 25 24 22 19 19 18
17 13 11 11 11 10 13 11 7 3 2 1 2 5 6 5 6 6 5 4 4 3 5 4 3 3 1 3 3 3 4 3 1 3 6 4 6 6 7 9 11 13 18 20 21 25 24 25 25 26 26 22 20 21
20 18 14 12 13 13 16 16 13 6 1 2 2 6 8 5 3 4 4 3 2 3 5 4 3 3 1 3 3 2 2 5 6 5 4 4 4 6 7 8 11 13 16 18 22 22 25 28 27 27 28 25 24 24
22 10 9 16 9 17 20 16 12 6 3 3 6 4 4 1 4 3 3 3 3 3 3 3 3 3 5 4 4 8 5 7 4 4 4 2 3 6 7 9 15 20 22 23 22 24 26 27 28 31 31 30 28 28
16 5 18 19 17 13 28 16 6 7 5 6 6 4 3 3 4 3 4 4 11 5 4 3 7 11 3 3 4 5 5 4 5 4 4 5 5 6 7 11 15 20 20 23 25 28 30 34 32 28 22 30 29 30
16 21 21 20 16 16 6 7 7 6 11 9 6 6 3 4 4 4 3 3 6 4 4 5 4 5 5 6 4 4 5 4 4 4 4 5 7 8 14 15 20 23 23 24 27 30 30 28 24 23 29 31 28 29
18 19 20 16 14 7 5 6 8 6 12 4 6 6 4 4 6 15 5 6 12 2 2 3 6 5 4 4 5 4 4 4 4 4 4 9 9 10 13 16 20 23 24 25 25 24 26 32 30 30 33 31 28 31
17 18 19 17 7 5 4 4 7 5 6 5 5 9 8 10 7 6 7 7 5 3 6 8 11 4 4 4 4 4 4 4 3 2 3 4 11 11 11 14 18 22 24 24 26 27 25 26 32 33 33 32 28 30
19 13 9 11 4 12 7 3 4 3 4 4 2 6 5 4 12 12 12 5 7 7 10 10 8 5 12 7 9 14 8 9 5 5 5 4 14 17 17 15 14 16 18 19 17 20 25 24 31 32 31 31 31 31
11 12 10 7 5 6 6 10 4 3 3 3 3 5 5 8 6 8 7 10 14 17 12 6 5 8 11 11 14 20 21 16 19 15 14 11 2 3 8 20 14 14 19 23 24 22 28 33 34 32 29 30 30 31
18 11 7 7 3 5 7 12 9 7 11 10 4 10 7 6 7 6 7 9 13 16 18 18 22 23 20 26 23 29 30 25 19 19 18 20 23 25 21 22 25 23 16 26 28 28 29 29 30 30 30 29 29 31
19 6 4 5 8 6 4 6 4 7 10 16 17 23 12 4 4 8 14 17 16 8 14 18 19 11 15 20 14 17 24 26 25 22 24 22 11 18 26 27 29 31 31 30 29 30 30 29 29 29 29 30 29 29
2 6 5 9 5 4 8 14 17 16 22 18 25 19 8 4 8 15 12 6 12 11 11 11 12 14 15 15 11 23 29 29 19 11 25 28 23 19 18 27 32 34 33 30 28 29 30 29 30 30 29 27 27 27
5 6 10 8 5 6 7 13 17 18 15 21 10 6 12 15 22 16 8 11 5 6 12 14 13 13 14 18 15 13 23 29 26 18 23 24 26 19 9 8 7 20 31 32 32 32 33 34 32 31 30 29 28 25
7 8 5 5 6 9 9 9 12 10 17 10 9 13 13 17 16 8 4 5 5 18 32 32 28 18 14 21 30 28 25 26 30 29 33 37 34 36 30 17 15 25 28 29 31 37 34 33 31 31 29 27 24 22
8 5 11 18 14 14 19 16 20 20 15 9 12 26 22 14 14 10 5 16 23 30 24 25 29 29 28 29 27 25 26 30 32 32 31 33 34 33 33 33 32 31 29 28 28 29 31 31 31 29 26 25 23 20
6 8 11 18 18 13 12 17 19 17 15 15 19 22 22 16 16 12 17 26 30 25 14 13 21 26 27 27 24 23 25 25 14 13 14 11 9 24 26 30 33 33 32 29 25 24 25 27 27 25 22 21 18 14
11 10 13 15 17 17 16 14 17 18 14 15 10 14 17 18 35 36 29 26 21 15 23 23 21 12 12 12 12 17 23 26 28 19 10 11 16 24 22 25 26 29 31 29 27 26 26 23 19 15 15 15 14 15
7 8 14 15 19 17 18 13 14 16 14 16 14 14 17 18 30 38 34 30 29 27 20 11 13 22 16 12 8 3 4 14 21 27 30 31 29 26 24 22 19 21 24 24 26 27 26 24 23 20 18 17 16 16
5 8 9 15 18 16 11 10 11 14 16 14 17 13 14 12 18 16 34 30 20 15 25 23 16 19 29 28 26 25 19 15 11 13 13 19 26 29 25 19 17 18 21 25 27 27 25 23 21 21 19 20 19 17
4 6 10 8 7 7 10 4 5 6 9 12 15 14 14 13 20 15 21 27 32 27 25 29 35 36 33 30 29 29 27 26 23 22 21 19 20 20 15 19 20 20 19 21 23 24 26 24 22 21 19 18 16 15
Wind_Direction
88 81 74 65 62 62 65 67 63 57 59 58 56 49 47 121 145 162 86 120 102 112 301 106 182 142 97 116 149 242 43 342 50 73 120 229 126 235 86 210 185 154 129 237 52 54 299 221 24 131 222 285 270 317
89 79 73 67 62 63 62 65 69 64 65 61 55 52 55 71 116 130 99 96 98 90 184 105 29 22 236 187 136 31 179 175 192 89 115 125 114 83 162 260 171 295 180 191 162 214 237 245 201 235 203 238 291 301
81 71 60 57 54 55 56 58 66 63 58 58 54 60 55 59 83 107 99 94 87 76 14 47 340 32 25 282 202 119 275 189 175 175 158 154 97 122 160 250 209 241 171 150 73 274 250 256 248 239 253 234 275 274
65 58 44 33 32 35 43 49 54 64 58 56 54 50 49 67 100 66 57 67 78 102 110 272 341 334 33 62 137 148 147 123 107 84 98 122 144 168 212 212 176 200 140 166 250 270 271 283 253 252 269 266 282 142
48 29 17 12 10 13 21 23 30 43 41 46 49 42 41 42 41 45 69 52 53 124 170 242 307 231 309 71 75 98 119 98 83 54 73 201 165 116 317 38 256 186 179 160 216 210 170 234 240 230 205 243 194 160
9 358 351 345 341 342 358 4 351 343 349 349 352 354 349 342 329 308 5 30 30 116 93 110 294 282 218 262 3 29 102 102 91 134 206 242 235 112 148 232 242 191 186 164 196 179 193 227 225 228 211 178 174 177
307 316 319 322 322 319 323 333 339 323 315 323 327 338 345 334 339 311 185 315 343 336 83 27 314 274 237 206 23 93 73 105 118 140 205 183 242 121 156 224 217 189 185 185 195 137 201 212 209 217 203 178 177 182
295 296 300 304 307 308 313 315 316 320 306 301 302 305 313 315 293 240 276 331 351 70 70 121 259 350 185 188 241 54 107 38 357 183 82 183 65 119 254 225 183 176 180 190 197 195 197 206 188 187 180 159 160 189
291 290 289 294 296 301 307 310 311 311 309 301 302 300 297 255 300 332 291 294 282 177 180 165 170 225 131 138 132 34 77 39 278 204 232 122 199 226 224 181 182 180 181 188 194 196 181 178 188 188 190 186 178 206
302 292 285 278 283 288 297 308 312 311 308 313 315 301 336 1 312 306 271 10 4 333 76 209 146 211 115 90 142 98 24 215 211 242 114 166 251 245 209 194 186 184 181 167 177 202 190 192 188 193 201 203 205 211
265 282 289 283 270 278 283 293 309 317 318 318 333 263 321 316 303 37 303 128 284 279 193 223 186 151 216 127 186 190 189 178 234 256 160 257 266 239 192 181 182 184 187 190 201 200 194 188 189 189 205 210 210 214
309 270 268 281 279 259 273 269 283 304 341 329 301 294 288 17 29 77 246 303 216 229 204 161 198 187 179 130 115 210 169 119 243 146 107 258 250 240 181 178 178 181 185 187 196 195 202 195 197 197 204 208 212 218
352 321 264 263 271 265 245 267 254 257 302 295 273 299 62 284 19 191 214 221 243 203 184 166 147 143 76 68 76 134 168 222 92 67 233 232 255 247 184 175 177 184 188 192 197 204 204 203 207 204 206 215 218 219
345 339 316 263 252 273 229 230 247 228 314 352 216 270 200 214 236 205 199 204 230 174 155 130 110 144 163 114 151 165 217 115 231 239 237 248 227 227 181 176 164 183 185 191 196 198 202 202 204 210 213 216 215 219
341 344 340 338 265 245 224 212 214 155 9 263 190 239 226 237 249 237 223 298 244 157 137 97 71 100 161 148 205 132 182 237 213 229 231 240 241 198 176 174 182 183 189 195 195 194 200 202 207 213 216 220 221 225
341 345 354 350 325 245 207 186 167 140 227 238 238 253 247 305 277 209 205 234 172 149 81 64 132 131 222 181 164 212 186 222 239 218 229 233 239 207 190 185 190 189 190 197 199 202 205 208 211 218 222 224 226 229
345 356 326 332 326 230 196 167 130 194 211 229 240 217 229 253 233 238 184 207 164 165 187 157 176 211 120 200 223 186 213 226 220 238 234 227 226 209 194 188 185 186 188 195 200 204 210 218 222 220 221 231 235 237
312 324 330 342 320 166 172 159 168 203 232 230 237 227 206 205 220 221 211 177 158 207 150 216 145 186 203 190 221 231 226 256 245 256 255 241 226 209 197 196 193 195 199 202 205 210 213 214 211 219 229 238 243 246
305 308 313 325 333 305 210 216 201 234 227 223 225 227 212 219 232 244 218 189 219 276 182 196 227 200 202 206 231 231 232 216 223 234 243 250 234 215 215 215 213 205 205 205 206 209 215 222 223 226 235 240 239 249
297 296 300 315 304 267 256 231 206 244 233 224 215 217 221 231 234 239 229 212 182 210 229 223 223 201 187 217 199 210 223 190 168 209 265 266 244 227 222 215 213 220 218 218 221 219 219 227 235 237 241 243 242 250
300 310 288 312 262 224 266 254 227 252 277 237 172 195 217 210 220 226 237 211 198 222 239 234 227 228 218 224 226 224 226 187 200 192 208 229 236 227 233 230 229 221 215 214 211 223 221 223 236 241 242 243 246 250
280 292 283 274 243 247 239 232 257 270 233 259 308 220 228 229 226 219 228 228 231 234 236 236 240 234 244 238 238 238 238 238 241 241 246 238 215 201 228 231 209 213 218 225 225 224 230 238 242 243 242 246 251 254
288 278 241 222 254 257 251 216 239 227 252 262 239 240 237 228 220 170 219 225 244 239 241 241 238 240 245 251 248 243 240 233 246 242 230 231 236 240 240 232 224 214 220 236 237 239 239 243 244 245 247 250 253 256
263 241 216 228 210 247 251 220 220 237 242 244 248 258 257 233 195 217 240 235 241 233 229 236 240 238 242 243 236 234 233 231 235 240 228 220 221 239 237 238 239 235 233 241 242 242 243 242 244 246 247 248 252 254
212 227 212 235 264 242 238 250 252 254 254 251 243 239 233 210 243 237 243 238 232 232 232 227 225 228 234 241 238 236 230 222 224 233 238 228 229 234 232 240 242 243 244 238 236 241 245 245 243 242 244 245 247 251
248 225 194 206 234 221 243 258 259 256 260 257 263 240 246 245 247 247 247 234 221 215 222 225 227 230 233 236 241 233 223 217 223 231 239 240 229 223 222 220 230 247 244 238 241 238 238 241 239 240 240 241 241 244
223 246 244 230 249 263 271 286 296 293 283 270 258 244 237 244 254 246 238 225 212 226 231 226 222 227 234 242 243 244 240 229 220 235 241 244 247 247 238 236 240 246 255 251 242 240 237 238 237 238 236 240 242 241
217 213 227 251 251 259 269 274 275 279 282 277 270 259 259 260 255 246 218 249 227 243 246 230 229 230 236 244 245 241 239 236 237 235 234 241 248 253 253 254 259 260 256 253 248 242 240 239 239 236 233 232 237 235
235 238 248 254 254 255 256 256 260 264 266 266 268 271 276 268 262 263 258 253 252 257 248 255 248 236 240 248 254 245 240 227 201 219 227 234 243 250 251 252 253 255 256 249 240 236 232 230 230 228 227 227 231 228
250 233 241 244 248 252 250 251 265 272 276 273 275 292 297 298 281 268 257 256 256 253 255 253 252 219 219 222 238 236 234 233 228 221 229 234 239 250 253 253 249 247 245 241 231 221 220 219 215 209 204 206 212 206
260 262 259 253 253 255 256 266 268 268 269 267 263 267 267 273 274 281 266 250 249 245 243 234 229 229 215 194 201 219 260 247 243 244 245 252 256 257 256 255 258 252 237 223 214 208 201 198 203 203 198 199 201 202
246 248 249 253 257 264 269 255 258 264 267 263 265 261 262 258 262 273 256 247 233 234 242 241 241 241 235 239 245 239 242 265 251 255 261 257 259 258 252 251 245 236 225 217 212 208 205 202 198 199 199 205 209 209
264 247 244 257 261 256 263 200 252 258 242 245 252 251 253 253 265 267 267 243 234 238 237 239 250 258 257 256 253 245 247 245 241 254 257 258 262 267 264 239 226 221 225 223 218 210 204 203 203 207 209 206 207 214
Height
867 868 868 867 866 866 864 863 862 861 859 858 856 854 851 849 848 848 850 851 852 869 869 868 868 870 874 879 885 879 881 880 888 890 901 907 906 908 912 921 932 921 926 933 918 933 923 893 888 903 900 887 883 881
871 871 870 870 869 869 869 867 867 865 864 862 861 858 855 853 851 850 852 853 854 859 868 867 867 867 867 867 874 878 879 880 884 894 900 901 898 910 900 920 901 920 916 919 921 924 902 895 894 887 886 885 882 881
872 873 873 873 873 872 872 871 870 869 868 866 865 863 861 859 856 855 856 857 858 865 870 869 868 867 867 866 866 875 877 873 876 877 890 894 888 903 911 910 890 892 895 904 904 898 893 884 882 882 879 880 879 878
874 875 876 876 875 875 874 873 873 872 871 870 868 867 866 865 864 863 862 862 862 867 884 876 867 866 866 865 865 866 866 869 872 876 885 894 893 891 902 894 896 891 888 890 892 886 884 881 880 878 877 876 877 878
876 877 877 877 877 877 876 875 875 874 874 873 871 870 869 868 868 867 865 864 864 867 880 876 868 866 865 865 865 866 866 869 875 883 891 887 889 889 892 890 895 882 882 894 898 879 882 880 876 875 876 876 877 878
877 877 878 878 878 878 877 877 876 876 875 874 873 872 871 870 869 868 867 867 865 864 870 882 869 865 865 865 865 865 866 869 874 880 882 882 877 883 892 889 868 867 869 869 874 873 875 873 873 874 874 874 876 877
877 877 878 878 879 879 878 878 877 876 876 875 874 872 871 870 869 869 872 869 866 865 869 879 874 864 863 864 864 866 866 869 873 880 882 879 877 881 890 881 856 859 861 864 865 868 872 872 872 871 872 872 874 876
877 878 878 878 879 879 879 878 877 876 876 875 874 872 871 870 869 868 868 867 866 866 867 883 874 870 862 867 870 866 868 871 872 874 878 875 877 880 877 851 850 853 857 859 860 862 863 864 867 869 871 872 874 875
876 877 877 878 878 878 878 878 877 876 875 874 874 872 870 868 868 868 867 866 866 869 877 873 874 881 860 865 868 869 869 878 873 875 873 873 874 868 839 840 842 843 848 851 856 858 861 862 863 865 868 869 871 872
874 875 876 877 877 877 877 878 877 876 875 874 874 872 874 868 867 868 866 865 865 863 866 869 865 865 862 869 871 872 874 878 876 868 869 874 855 828 825 826 829 834 839 843 852 857 858 860 862 863 865 865 866 868
872 873 873 874 875 876 877 877 877 877 876 875 873 874 872 869 867 867 875 875 874 867 862 857 857 860 858 866 867 870 875 872 872 862 865 865 847 819 812 817 821 827 833 836 840 845 848 851 856 859 861 862 863 864
871 870 871 872 872 873 875 877 877 878 879 878 877 874 871 870 875 875 879 872 867 853 853 852 852 851 854 854 860 869 865 868 860 863 870 851 821 805 807 809 814 820 826 831 835 839 843 846 849 852 855 857 859 860
870 870 868 869 871 872 873 875 877 878 879 878 876 875 874 877 885 874 877 858 860 845 842 846 848 848 852 853 861 861 857 864 861 873 849 827 807 801 803 807 813 817 823 828 831 835 838 842 845 848 850 852 854 856
870 869 868 867 868 869 870 874 876 878 880 880 880 881 870 868 860 845 841 835 832 833 835 836 846 847 852 852 858 853 852 855 862 858 831 814 800 797 800 803 808 814 818 822 825 829 832 836 840 843 845 848 850 851
870 868 866 864 865 866 867 869 874 878 881 881 877 874 849 837 835 834 832 832 829 829 830 838 842 847 850 851 854 850 853 849 836 824 814 798 792 793 796 799 803 808 812 816 819 823 826 830 833 836 839 842 843 844
869 866 865 864 861 862 863 867 871 877 879 876 864 849 840 839 834 831 829 827 826 829 830 833 839 846 840 842 844 843 837 825 808 808 795 790 789 789 791 792 796 800 805 810 815 818 821 825 827 828 832 834 836 837
870 869 868 863 860 859 857 863 869 874 871 860 842 834 832 831 828 823 821 821 821 825 829 834 835 827 836 836 831 826 819 804 796 791 787 785 783 783 785 788 792 795 799 803 807 811 814 818 822 825 827 828 830 831
871 869 866 863 859 858 856 858 862 861 850 835 833 823 823 819 820 815 813 814 817 818 822 818 818 822 821 813 811 801 798 791 789 786 782 780 778 778 780 783 786 790 793 796 800 804 808 812 815 817 819 821 823 824
867 866 865 865 864 861 856 853 850 840 825 821 813 814 812 810 807 806 806 807 809 810 811 813 805 803 799 798 791 790 788 786 784 781 780 777 776 776 777 779 782 784 787 790 794 797 800 803 805 808 810 813 814 815
864 863 863 862 862 860 850 841 837 827 810 804 802 802 802 801 800 799 798 798 802 807 803 790 774 784 784 778 777 779 777 776 779 780 778 776 775 775 774 776 777 779 782 785 787 790 793 796 797 800 802 804 805 805
859 857 857 858 856 854 845 830 823 819 810 799 792 795 793 791 791 792 790 790 795 789 776 766 771 770 769 767 768 770 772 772 773 773 772 773 769 771 771 772 773 775 777 778 781 783 785 786 786 789 792 794 795 796
855 854 853 852 850 841 829 820 815 810 807 798 794 788 786 785 785 783 782 784 771 758 760 765 765 764 763 761 761 762 763 765 765 765 766 767 767 768 768 767 770 770 771 772 773 774 775 776 779 781 783 785 787 788
850 850 849 847 844 831 817 811 807 801 797 790 788 785 779 773 769 772 770 762 750 752 754 754 755 756 754 754 754 753 753 755 756 756 755 758 757 757 759 759 761 763 765 764 765 767 767 769 771 773 775 777 778 779
844 844 839 835 828 820 805 797 794 789 783 780 776 771 768 762 760 756 749 744 737 743 744 743 746 745 744 743 740 739 742 744 743 743 744 746 748 748 749 750 752 753 754 754 756 758 759 761 763 765 766 768 769 769
840 833 829 822 817 812 801 789 781 777 770 766 764 755 748 754 748 740 733 730 734 733 732 732 731 731 729 726 725 725 727 730 731 733 732 734 736 738 739 740 741 743 745 747 748 749 750 751 753 754 755 757 759 760
827 814 815 807 807 799 787 781 776 766 758 756 750 744 742 741 737 730 726 724 724 720 718 718 718 717 715 712 711 712 713 716 719 720 721 724 725 726 728 731 732 730 733 736 739 738 739 741 743 745 746 747 749 751
818 810 797 787 783 778 774 769 764 761 752 745 739 732 731 727 719 713 716 712 711 706 701 698 700 701 699 696 696 699 704 707 708 708 712 713 714 715 717 718 717 717 724 725 726 726 728 729 731 734 736 739 741 743
795 790 792 774 778 774 773 769 765 760 751 739 733 727 724 713 710 706 703 698 694 692 688 689 689 689 690 688 689 692 695 697 698 699 701 702 703 704 705 706 708 710 712 713 715 716 717 719 721 724 727 729 732 735
784 770 773 771 767 764 764 761 754 745 743 740 734 726 717 708 699 695 694 692 689 685 684 683 680 681 682 683 684 684 687 689 693 695 695 695 696 692 694 697 699 701 702 703 706 708 709 711 713 716 719 722 725 728
764 759 759 757 759 754 747 745 740 733 735 734 730 724 719 712 700 690 685 684 684 680 677 674 673 675 675 677 676 677 678 680 681 683 684 684 682 685 687 689 689 690 691 694 696 699 702 705 708 711 713 716 719 722
748 746 747 743 739 732 729 729 729 724 721 718 715 714 702 693 685 684 679 673 672 670 669 668 668 668 666 667 671 671 671 671 672 674 676 676 677 678 680 681 682 683 684 686 689 692 695 698 702 705 709 712 715 717
743 741 741 737 726 720 723 721 715 712 705 704 695 694 685 683 677 660 660 662 661 660 659 657 658 658 658 658 660 661 662 665 666 668 669 670 670 671 674 675 676 678 679 681 684 687 690 693 697 700 703 706 709 711
741 731 725 726 722 721 708 715 705 695 688 683 674 671 668 666 661 644 645 647 648 647 646 645 645 648 648 650 651 653 655 657 659 661 662 663 665 665 666 668 670 673 674 676 678 682 685 688 692 695 698 702 705 708